Overview Statistics Trail Chart Weather Telemetry Raw packets
 

This is the latest recevied weather packets stored in our database for station/object K9MWD. If no packets are shown the sender has not sent any weather packets the latest 10 day(s).

<< 34 35 36 37 38 39 40 >>
Time Temp. Humidity Pressure Rain* Wind** Luminosity Snow
1788400261 29.44° C 67% 1012.6 hPa 0 mm - 0 W/m² -
1788399961 29.44° C 67% 1012.6 hPa 0 mm - 0 W/m² -
1788399687 30° C 67% 1012.4 hPa 0 mm - 0 W/m² -
1788399355 30° C 67% 1012.4 hPa 0 mm - 0 W/m² -
1788399050 30° C 66% 1012.3 hPa 0 mm - 0 W/m² -
1788398749 30° C 66% 1012.4 hPa 0 mm - 0 W/m² -
1788398448 30° C 65% 1012.3 hPa 0 mm - 0 W/m² -
1788398148 30.56° C 64% 1012.4 hPa 0 mm - 0 W/m² -
1788397848 30.56° C 64% 1012.4 hPa 0 mm - 0 W/m² -
1788397544 30.56° C 63% 1012.2 hPa 0 mm - 0 W/m² -
1788397242 31.11° C 62% 1012.2 hPa 0 mm - 1 W/m² -
1788396937 31.11° C 62% 1012.3 hPa 0 mm - 2 W/m² -
1788396633 31.11° C 62% 1012.1 hPa 0 mm - 4 W/m² -
1788396333 31.67° C 61% 1011.9 hPa 0 mm - 7 W/m² -
1788396028 31.67° C 61% 1012 hPa 0 mm - 10 W/m² -
1788395723 31.67° C 61% 1012.2 hPa 0 mm - 14 W/m² -
1788395419 31.67° C 61% 1012.1 hPa 0 mm - 18 W/m² -
1788395119 32.22° C 61% 1012.2 hPa 0 mm - 22 W/m² -
1788394813 32.22° C 61% 1012.2 hPa 0 mm - 28 W/m² -
1788394508 32.22° C 61% 1012.2 hPa 0 mm - 35 W/m² -
1788394207 32.22° C 61% 1012 hPa 0 mm - 44 W/m² -
1788393903 32.22° C 60% 1012.1 hPa 0 mm - 60 W/m² -
1788393601 32.22° C 59% 1012.1 hPa 0 mm - 72 W/m² -
1788393296 32.22° C 59% 1011.9 hPa 0 mm - 78 W/m² -
1788392990 32.22° C 58% 1011.9 hPa 0 mm - 81 W/m² -

* Rain latest hour (hover to see other rain measurements)
** Current wind speed in m/s (hover to see current wind gust speed)